Total_Precipitation_Accumulation
1.04 1.06 1.06 1.04 0.93 0.92 0.96 0.97 0.96 0.96 1.01 0.99 0.90 0.83 0.90 0.89 0.85 0.91 0.96 1.02 1.10 1.25 1.40 1.53 1.68 1.93 2.21 2.23 2.18 2.06 1.92 1.76 1.52 1.38 1.18 1.10 1.39 1.48 1.39 1.26 1.23 1.22 0.99
0.99 1.01 1.00 0.91 0.85 0.81 0.79 0.76 0.68 0.65 0.68 0.77 0.85 0.80 0.78 0.80 0.82 0.88 0.90 0.94 0.97 1.05 1.15 1.27 1.44 1.74 2.07 2.29 2.37 2.27 2.12 1.96 1.80 1.65 1.32 1.08 1.19 1.53 1.66 1.59 1.36 1.20 1.08
1.08 0.93 0.83 0.79 0.75 0.73 0.65 0.60 0.57 0.51 0.52 0.56 0.65 0.65 0.73 0.80 0.83 0.85 0.87 0.91 0.93 1.02 1.16 1.21 1.27 1.47 1.66 1.87 2.06 2.18 2.17 2.14 2.09 1.85 1.55 1.29 1.22 1.35 1.60 1.62 1.55 1.50 1.29
1.19 1.08 0.93 0.83 0.75 0.70 0.62 0.57 0.53 0.51 0.54 0.59 0.71 0.75 0.70 0.68 0.73 0.84 0.88 0.84 0.83 0.87 0.96 1.05 1.15 1.20 1.35 1.50 1.60 1.79 2.00 2.23 2.29 2.14 1.88 1.56 1.44 1.32 1.43 1.58 1.66 1.61 1.52
1.16 1.16 1.00 0.93 0.85 0.72 0.65 0.64 0.61 0.64 0.59 0.61 0.71 0.81 0.87 0.83 0.80 0.89 0.86 0.84 0.84 0.83 0.88 0.88 0.95 0.97 1.03 1.22 1.26 1.48 1.80 2.06 2.17 2.23 2.11 1.81 1.55 1.37 1.17 1.27 1.52 1.74 1.74
0.81 0.89 0.85 0.76 0.66 0.63 0.61 0.59 0.55 0.52 0.48 0.47 0.51 0.58 0.68 0.72 0.93 0.89 0.74 0.70 0.75 0.82 0.87 0.87 0.89 0.83 0.81 0.87 1.01 1.14 1.43 1.64 1.77 1.84 1.87 1.72 1.51 1.37 1.33 1.29 1.36 1.50 1.55
0.51 0.61 0.60 0.54 0.47 0.44 0.47 0.47 0.44 0.39 0.40 0.38 0.37 0.38 0.44 0.60 0.68 0.52 0.51 0.57 0.71 0.83 0.90 0.92 0.89 0.84 0.88 0.89 0.91 0.92 0.99 1.17 1.38 1.57 1.60 1.50 1.56 1.47 1.39 1.29 1.31 1.32 1.31
0.25 0.30 0.31 0.31 0.30 0.31 0.33 0.34 0.33 0.32 0.30 0.29 0.37 0.44 0.46 0.48 0.54 0.44 0.43 0.54 0.73 0.87 0.87 0.83 0.89 0.91 0.94 1.00 0.93 1.00 0.95 0.94 1.02 1.07 1.21 1.41 1.55 1.71 1.69 1.58 1.59 1.53 1.44
0.08 0.10 0.12 0.15 0.17 0.19 0.19 0.22 0.30 0.34 0.34 0.37 0.49 0.56 0.50 0.42 0.46 0.48 0.53 0.68 0.81 0.89 0.86 0.85 0.93 0.97 1.10 1.15 1.06 1.11 1.07 1.03 1.00 1.11 1.20 1.30 1.38 1.50 1.65 1.69 1.64 1.60 1.47
0.02 0.02 0.03 0.04 0.05 0.07 0.10 0.12 0.18 0.24 0.31 0.39 0.41 0.38 0.38 0.44 0.51 0.50 0.63 0.81 0.93 1.03 0.99 0.99 1.17 1.12 1.10 1.05 1.03 1.17 1.14 0.99 0.92 0.96 1.01 1.09 1.12 1.22 1.35 1.39 1.51 1.57 1.48
0.01 0.02 0.02 0.02 0.01 0.02 0.03 0.04 0.06 0.11 0.15 0.18 0.19 0.23 0.30 0.46 0.52 0.56 0.75 0.85 0.92 1.06 1.09 1.05 0.98 1.11 1.06 0.98 0.98 1.03 1.17 1.05 0.98 1.01 1.01 1.01 1.03 1.07 1.11 1.17 1.28 1.41 1.45
0.01 0.01 0.01 0.01 0.01 0.01 0.03 0.03 0.03 0.04 0.07 0.10 0.13 0.17 0.23 0.31 0.39 0.46 0.60 0.73 0.82 0.99 1.07 0.97 0.87 1.10 1.06 0.97 0.89 0.91 1.05 1.12 1.11 1.14 1.13 1.05 0.96 0.93 0.93 0.99 1.07 1.18 1.27
0.01 0.01 0.01 0.01 0.01 0.01 0.02 0.03 0.02 0.04 0.06 0.08 0.12 0.19 0.25 0.30 0.32 0.39 0.47 0.56 0.68 0.87 0.93 0.94 0.95 0.99 0.91 0.87 0.96 0.99 1.01 1.03 1.11 1.17 1.06 0.92 0.85 0.83 0.88 0.99 1.10 1.19 1.26
0.00 0.01 0.01 0.01 0.02 0.02 0.02 0.03 0.03 0.03 0.06 0.10 0.17 0.23 0.27 0.30 0.32 0.40 0.48 0.52 0.61 0.71 0.73 0.77 0.81 0.78 0.78 0.82 0.88 0.97 1.03 1.07 1.09 1.03 0.93 0.80 0.80 0.84 0.86 0.89 1.01 1.14 1.28
0.00 0.00 0.01 0.01 0.02 0.02 0.02 0.02 0.03 0.04 0.06 0.12 0.16 0.20 0.21 0.24 0.28 0.37 0.50 0.58 0.68 0.78 0.80 0.74 0.75 0.75 0.75 0.74 0.79 0.83 0.88 0.88 0.91 0.89 0.86 0.85 0.83 0.85 0.84 0.83 0.90 0.96 0.99
0.00 0.00 0.01 0.01 0.02 0.03 0.04 0.03 0.02 0.03 0.04 0.06 0.07 0.10 0.17 0.20 0.18 0.21 0.32 0.47 0.63 0.84 1.07 1.08 1.07 1.01 0.93 0.82 0.75 0.69 0.68 0.70 0.74 0.80 0.82 0.80 0.79 0.82 0.86 0.88 0.92 0.96 0.95
0.00 0.00 0.00 0.01 0.02 0.03 0.05 0.09 0.11 0.07 0.04 0.03 0.04 0.07 0.13 0.18 0.18 0.22 0.29 0.34 0.46 0.76 1.12 1.13 1.12 0.97 0.83 0.76 0.67 0.57 0.53 0.56 0.63 0.65 0.68 0.71 0.71 0.74 0.80 0.83 0.85 0.90 0.91
0.00 0.01 0.01 0.02 0.03 0.03 0.04 0.09 0.20 0.26 0.20 0.09 0.05 0.06 0.11 0.19 0.24 0.32 0.42 0.52 0.59 0.72 0.83 0.83 0.75 0.68 0.61 0.52 0.49 0.46 0.43 0.48 0.57 0.59 0.60 0.60 0.61 0.65 0.68 0.75 0.79 0.80 0.83
0.01 0.01 0.04 0.06 0.04 0.03 0.05 0.13 0.18 0.12 0.11 0.13 0.12 0.08 0.09 0.12 0.17 0.24 0.35 0.46 0.48 0.51 0.51 0.46 0.40 0.37 0.38 0.35 0.36 0.36 0.37 0.41 0.48 0.56 0.57 0.55 0.53 0.55 0.59 0.64 0.71 0.78 0.79
0.00 0.01 0.03 0.08 0.09 0.05 0.06 0.11 0.10 0.09 0.11 0.13 0.14 0.12 0.12 0.12 0.15 0.17 0.22 0.27 0.28 0.28 0.28 0.28 0.26 0.25 0.27 0.28 0.29 0.31 0.32 0.36 0.42 0.48 0.51 0.54 0.53 0.51 0.52 0.57 0.61 0.64 0.66
0.00 0.01 0.02 0.05 0.08 0.05 0.06 0.07 0.06 0.07 0.10 0.11 0.11 0.11 0.13 0.17 0.18 0.18 0.17 0.17 0.19 0.21 0.24 0.25 0.24 0.25 0.27 0.28 0.31 0.34 0.37 0.40 0.42 0.48 0.49 0.51 0.54 0.54 0.53 0.55 0.58 0.58 0.60
0.01 0.01 0.02 0.05 0.06 0.04 0.04 0.07 0.08 0.07 0.07 0.09 0.11 0.11 0.14 0.19 0.20 0.18 0.17 0.17 0.17 0.19 0.25 0.29 0.30 0.31 0.30 0.31 0.35 0.39 0.40 0.42 0.44 0.47 0.51 0.52 0.51 0.52 0.53 0.54 0.57 0.58 0.58
0.03 0.03 0.03 0.05 0.06 0.05 0.04 0.06 0.10 0.12 0.10 0.11 0.12 0.12 0.13 0.16 0.18 0.21 0.22 0.21 0.24 0.27 0.25 0.26 0.30 0.32 0.32 0.33 0.36 0.41 0.45 0.46 0.47 0.50 0.55 0.53 0.50 0.50 0.53 0.53 0.54 0.57 0.57
0.03 0.03 0.04 0.05 0.06 0.07 0.07 0.07 0.08 0.09 0.11 0.14 0.14 0.14 0.15 0.17 0.19 0.18 0.20 0.25 0.27 0.26 0.26 0.26 0.28 0.31 0.33 0.34 0.36 0.38 0.41 0.45 0.49 0.52 0.55 0.57 0.54 0.51 0.54 0.58 0.57 0.58 0.63
0.04 0.05 0.05 0.07 0.09 0.10 0.10 0.10 0.10 0.10 0.12 0.16 0.14 0.14 0.14 0.15 0.17 0.16 0.17 0.22 0.25 0.24 0.24 0.25 0.26 0.29 0.31 0.32 0.35 0.37 0.41 0.46 0.49 0.51 0.53 0.58 0.58 0.57 0.57 0.61 0.65 0.68 0.71
0.07 0.07 0.08 0.09 0.10 0.12 0.13 0.14 0.14 0.15 0.15 0.14 0.14 0.16 0.17 0.18 0.19 0.18 0.18 0.20 0.22 0.23 0.23 0.24 0.26 0.28 0.29 0.30 0.35 0.40 0.42 0.40 0.42 0.48 0.51 0.58 0.63 0.64 0.64 0.63 0.64 0.67 0.70